Location: Burbank
(38.7788°N, 114.0429°W)
Time: 10:13:55
(UTC+00:00)

Courier 1B Rocket - Pass Details

Date: 12 May 2026
Orbit: 920 x 1201 km, 28.2° (Epoch: 10 June)

Event Time Altitude Azimuth Distance (km) Brightness Sun altitude
Rises 15:56:18 0° 221° (SW) 3,549 7.7 39.1°
Reaches altitude 10° 15:59:34 10° 205° (SSW) 2,628 7.2 39.7°
Maximum altitude 16:04:00 20° 160° (SSE) 2,037 7.3 40.6°
Drops below altitude 10° 16:08:35 10° 115° (ESE) 2,729 8.4 41.5°
Sets 16:12:03 0° 100° (E) 3,731 8.9 42.1°
